COSMOS 2361 1 25590U 98076A 09185.36855631 .00000028 00000-0 13643-4 0 803 2 25590 082.9328 102.3883 0032840 038.3741 321.9733 13.72705174527383 COSMOS 2378 1 26818U 01023A 09184.45420614 .00000054 00000-0 41508-4 0 698 2 26818 082.9268 129.9253 0033609 008.5460 351.6262 13.73735695404560 COSMOS 2389 1 27436U 02026A 09184.78364299 .00000008 00000-0 -71174-5 0 7994 2 27436 082.9487 070.3561 0044868 255.0594 104.5581 13.74733565356253 COSMOS 2398 1 27818U 03023A 09184.49082354 .00000012 00000-0 -30924-5 0 6579 2 27818 082.9457 016.8420 0030025 227.6148 132.2477 13.71955198304488 COSMOS 2407 1 28380U 04028A 09184.44054860 .00000036 00000-0 22120-4 0 4757 2 28380 082.9602 338.7999 0037843 286.8653 072.8360 13.75843473248422 COSMOS 2414 1 28521U 05002A 09184.54158145 .00000084 00000-0 58018-4 0 3891 2 28521 082.9475 044.7631 0039910 341.0466 018.9224 13.87347373225366 COSMOS 2429 1 32052U 07038A 09185.21977612 -.00000017 00000-0 -33062-4 0 5734 2 32052 082.9792 087.4211 0037035 239.7198 120.0289 13.74693039 90906